Date,Time,Air Temperature,Dewpoint,Windchill,Heat Index,RH,3m Max Wind Speed,3m Mean Wind Speed,3m Wind Direction,Rain,Solar Radiation
,,F,F,F,F,%,MPH,MPH,deg,in,MJ/m^2
2024-04-16,22:00,51.4,37.4,,51.4,58.7,3.7,3.1,169,0.0,0
2024-04-16,22:05,52.8,37.9,,52.8,56.8,3.7,2.3,126,0.0,0
2024-04-16,22:10,53,38,,53,56.7,4,2.7,129,0.0,0
2024-04-16,22:15,51.4,38,,51.4,60.0,5.1,3.2,165,0.0,0
2024-04-16,22:20,50.8,37.7,,50.8,60.7,5.3,4.2,164,0.0,0
2024-04-16,22:25,50.1,37.8,,50.1,62.4,4.3,3.6,167,0.0,0
2024-04-16,22:30,49.8,37.5,,49.8,62.5,4.2,3.6,163,0.0,0
2024-04-16,22:35,50.3,37.3,,50.3,61.0,3.7,3.1,158,0.0,0
2024-04-16,22:40,51.2,37.5,,51.2,59.3,4,3,140,0.0,0
2024-04-16,22:45,49.6,37.3,,49.6,62.4,4.5,3.6,159,0.0,0
2024-04-16,22:50,50,37.1,,50,61.2,4.4,3.8,153,0.0,0
2024-04-16,22:55,48.6,37.1,,48.6,64.4,4.6,3.6,169,0.0,0
2024-04-16,23:00,47.2,36.9,,47.2,67.2,4.4,3.3,187,0.0,0
2024-04-16,23:05,47.3,36.6,,47.3,66.4,4,3.5,189,0.0,0
2024-04-16,23:10,47.4,36.4,,47.4,65.5,4.4,3.5,183,0.0,0
2024-04-16,23:15,47.8,36.6,,47.8,65.0,4.7,3.7,172,0.0,0
2024-04-16,23:20,49.2,36.9,,49.2,62.2,4.1,3.3,157,0.0,0
2024-04-16,23:25,49.5,37.4,,49.5,62.9,4,3.3,157,0.0,0
2024-04-16,23:30,50,37.5,,50,62.2,5.4,3.4,156,0.0,0
2024-04-16,23:35,49.9,37.9,,49.9,63.3,4.3,3.4,167,0.0,0
2024-04-16,23:40,49.2,38,,49.2,65.0,3.5,2.5,176,0.0,0
2024-04-16,23:45,49.4,37.7,,49.4,64.0,2.7,1.8,148,0.0,0
2024-04-16,23:50,49.8,37.6,,49.8,62.7,3.2,2.1,146,0.0,0
2024-04-16,23:55,49.4,37.5,,49.4,63.6,2.2,1.2,161,0.0,0
2024-04-17,00:00,49.1,37.5,,49.1,64.0,1.7,1.1,46,0.0,0
2024-04-17,00:05,49.6,37.4,,49.6,62.6,3.4,1.2,99,0.0,0
2024-04-17,00:10,49.3,36.7,,49.3,61.8,1,0.3,146,0.0,0
2024-04-17,00:15,50.4,37.2,,50.4,60.5,2.3,1.6,170,0.0,0
2024-04-17,00:20,50.7,37.3,,50.7,60.0,3.5,2.7,176,0.0,0
2024-04-17,00:25,50.7,37.4,,50.7,60.1,4.3,3.7,178,0.0,0
2024-04-17,00:30,48.9,37.5,,48.9,64.7,5,3.9,181,0.0,0
2024-04-17,00:35,49.4,37.4,,49.4,63.2,8.5,6.4,173,0.0,0
2024-04-17,00:40,49.4,37.5,,49.4,63.6,8.9,7.1,173,0.0,0
2024-04-17,00:45,49.6,37.5,,49.6,62.9,8.5,7,177,0.0,0
2024-04-17,00:50,49.7,37.5,,49.7,62.6,7,6.1,175,0.0,0
2024-04-17,00:55,49.1,37.4,,49.1,64.0,6.4,5.5,174,0.0,0
2024-04-17,01:00,48.6,37.2,,48.6,64.7,6.1,5.3,178,0.0,0
2024-04-17,01:05,49.3,37.1,,49.3,62.7,7.2,6,182,0.0,0
2024-04-17,01:10,50.3,37.3,,50.3,60.9,8.1,6.4,184,0.0,0
2024-04-17,01:15,51.2,37.4,,51.2,59.1,8.9,6.4,181,0.0,0
2024-04-17,01:20,51.3,37.6,,51.3,59.3,8.3,6.8,181,0.0,0
2024-04-17,01:25,51.5,37.8,,51.5,59.3,9.5,7.2,181,0.0,0
2024-04-17,01:30,51.6,37.8,,51.6,59.1,8.1,6.5,185,0.0,0
2024-04-17,01:35,51.6,37.8,,51.6,59.1,8,6.6,185,0.0,0
2024-04-17,01:40,51.3,37.8,,51.3,59.7,7.3,5.2,184,0.0,0
2024-04-17,01:45,50.9,37.7,,50.9,60.3,5.7,4.2,188,0.0,0
2024-04-17,01:50,51,37.5,,51,59.6,6,4.6,190,0.0,0
2024-04-17,01:55,51.1,37.5,,51.1,59.4,7.2,5.1,185,0.0,0
2024-04-17,02:00,51.4,37.5,,51.4,58.7,7.8,6,182,0.0,0
2024-04-17,02:05,51.2,37.5,,51.2,59.4,8.6,5.9,178,0.0,0
2024-04-17,02:10,50.6,37.5,,50.6,60.8,7.6,4.2,120,0.0,0
2024-04-17,02:15,51.2,37.5,,51.2,59.3,7,4.8,155,0.0,0
2024-04-17,02:20,50.4,37.5,,50.4,61.1,6.6,4.2,157,0.0,0
2024-04-17,02:25,50.7,37.4,,50.7,60.2,8.4,6.3,183,0.0,0
2024-04-17,02:30,49.6,37.3,,49.6,62.3,5.7,4.6,196,0.0,0
2024-04-17,02:35,50.5,37.3,,50.5,60.4,8.4,5.3,186,0.0,0
2024-04-17,02:40,50.6,37.4,,50.6,60.5,9.2,6.1,185,0.0,0
2024-04-17,02:45,50.2,37.4,,50.2,61.4,7,5,190,0.0,0
2024-04-17,02:50,49.7,37.1,,49.7,61.7,5.5,3.8,192,0.0,0
2024-04-17,02:55,49.4,37,,49.4,62.3,4.5,2.9,196,0.0,0
2024-04-17,03:00,46.3,36.6,,46.3,68.6,4.3,2.5,294,0.0,0
2024-04-17,03:05,44.5,35.7,,44.5,71.1,5.7,4,315,0.0,0
2024-04-17,03:10,45.9,35.3,,45.9,66.3,4.5,3.3,291,0.0,0
2024-04-17,03:15,45.6,35.2,,45.6,67.0,6.2,4.3,268,0.0,0
2024-04-17,03:20,45.2,35.2,,45.2,67.8,7.8,6.9,268,0.0,0
2024-04-17,03:25,44.5,35,,44.5,69.2,9.1,7.5,261,0.0,0
2024-04-17,03:30,44.9,35,,44.9,68.2,9.1,7.2,254,0.0,0
2024-04-17,03:35,45.3,35,,45.3,67.1,8.1,6.6,257,0.0,0
2024-04-17,03:40,45.7,35.3,,45.7,66.9,6.5,5.7,259,0.0,0
2024-04-17,03:45,46.4,35.3,,46.4,65.2,6.5,5.4,272,0.0,0
2024-04-17,03:50,44.7,35.3,,44.7,69.3,5.1,4.1,301,0.0,0
2024-04-17,03:55,42.6,34.8,,42.6,73.7,6.4,5.4,284,0.0,0
2024-04-17,04:00,43.8,34.7,,43.8,69.9,6.4,5.8,271,0.0,0
2024-04-17,04:05,45.1,35,,45.1,67.5,5.7,5,278,0.0,0
2024-04-17,04:10,43.5,35,,43.5,71.7,6,5.2,320,0.0,0
2024-04-17,04:15,39.5,33.8,,39.5,80.1,7.2,6.1,313,0.0,0
2024-04-17,04:20,40.7,33.5,,40.7,75.4,7.3,6.2,285,0.0,0
2024-04-17,04:25,41.7,33.5,,41.7,72.6,7.8,6.5,286,0.0,0
2024-04-17,04:30,42.7,33.8,,42.7,70.7,8.1,7.2,283,0.0,0
2024-04-17,04:35,43,34.2,,43,70.9,7.1,6.3,279,0.0,0
2024-04-17,04:40,43.7,34.7,,43.7,70.3,7.2,6.3,276,0.0,0
2024-04-17,04:45,44.8,34.8,,44.8,67.7,7.1,6.2,286,0.0,0
2024-04-17,04:50,44.6,35.3,,44.6,69.6,6.8,5.9,282,0.0,0
2024-04-17,04:55,45.5,35.4,,45.5,67.5,6.4,5.7,281,0.0,0
2024-04-17,05:00,45.1,35.6,,45.1,69.2,7.9,6.2,281,0.0,0
2024-04-17,05:05,44.1,35.6,,44.1,71.9,6.9,5.9,288,0.0,0
2024-04-17,05:10,43.7,35.4,,43.7,72.4,6.2,5,285,0.0,0
2024-04-17,05:15,44.8,35.5,,44.8,69.6,7,6.3,284,0.0,0
2024-04-17,05:20,44.6,35.5,,44.6,70.1,6.6,5.7,282,0.0,0
2024-04-17,05:25,45,35.7,,45,69.6,6.3,5.3,281,0.0,0
2024-04-17,05:30,44.9,35.6,,44.9,69.6,7.6,5.6,285,0.0,0
2024-04-17,05:35,45.2,35.7,,45.2,69.3,7.4,5.9,299,0.0,0
2024-04-17,05:40,44.3,35.7,,44.3,71.8,7.1,5.7,299,0.0,0
2024-04-17,05:45,44,35.7,,44,72.5,6.6,4.8,304,0.0,0
2024-04-17,05:50,43.8,35.4,,43.8,72.2,6.6,4.9,299,0.0,0
2024-04-17,05:55,43.1,35.3,,43.1,73.8,6.7,5.3,289,0.0,0
2024-04-17,06:00,43.2,35.2,,43.2,73.2,7,5.6,284,0.0,0
2024-04-17,06:05,43.1,35.1,,43.1,73.2,6.1,4.8,290,0.0,0.00006
2024-04-17,06:10,43.4,35,,43.4,72.1,7.1,6,303,0.0,0.00042
2024-04-17,06:15,43,35.1,,43,73.5,6.7,5.8,292,0.0,0.0009
2024-04-17,06:20,42.9,35,,42.9,73.5,7.2,5.9,278,0.0,0.00162
2024-04-17,06:25,42.7,35.1,,42.7,74.3,6.8,5.6,284,0.0,0.0036
2024-04-17,06:30,43,35.1,,43,73.4,7,5.8,285,0.0,0.00696
2024-04-17,06:35,42.9,35.4,,42.9,74.6,7.3,5.9,275,0.0,0.01068
2024-04-17,06:40,43.3,35.7,,43.3,74.3,7.4,6.1,268,0.0,0.01458
2024-04-17,06:45,43.7,36,,43.7,74.1,7.5,5.8,274,0.0,0.0186
2024-04-17,06:50,44.2,36.4,,44.2,73.9,7.6,5.8,285,0.0,0.02262
2024-04-17,06:55,44.6,36.9,,44.6,74.0,7.1,5.7,288,0.0,0.0267
2024-04-17,07:00,45.3,37.3,,45.3,73.5,7.9,6.2,286,0.0,0.0309
2024-04-17,07:05,45.5,38,,45.5,74.9,7.7,6.1,298,0.0,0.03504
2024-04-17,07:10,46.2,38.3,,46.2,73.9,7.7,5.5,313,0.0,0.0393
2024-04-17,07:15,46.7,38.8,,46.7,74.0,6.1,4.4,313,0.0,0.04386
2024-04-17,07:20,47.2,39.1,,47.2,73.2,6.3,4.7,308,0.0,0.0483
2024-04-17,07:25,48.4,39.6,,48.4,71.5,6.2,4.7,325,0.0,0.0531
2024-04-17,07:30,49.3,40.2,,49.3,70.7,7.3,5.2,315,0.0,0.05772
2024-04-17,07:35,50.5,40.7,,50.5,69.2,7,5,320,0.0,0.0627
2024-04-17,07:40,51.3,41.3,,51.3,68.4,7.1,5.4,329,0.0,0.06756
2024-04-17,07:45,52.2,41.8,,52.2,67.7,6.8,5.4,335,0.0,0.0723
2024-04-17,07:50,53.5,42,,53.5,65.0,8.5,6.2,344,0.0,0.07722
2024-04-17,07:55,54.7,42.2,,54.7,62.6,6.7,5.4,348,0.0,0.0822
2024-04-17,08:00,55.5,42.8,,55.5,62.4,10,6.5,349,0.0,0.08718
2024-04-17,08:05,56.4,42.7,,56.4,60.1,9.1,7,356,0.0,0.09228
2024-04-17,08:10,56.7,42.9,,56.7,60.0,10.2,7.8,3,0.0,0.09726
2024-04-17,08:15,57.3,43.2,,57.3,59.2,9.5,7.7,3,0.0,0.10218
2024-04-17,08:20,57.5,43.3,,57.5,59.0,9.5,7.8,3,0.0,0.10734
2024-04-17,08:25,57.6,43.4,,57.6,58.9,9.8,7.5,17,0.0,0.11238
2024-04-17,08:30,57.8,43.4,,57.8,58.5,10.2,8.1,9,0.0,0.11742
2024-04-17,08:35,58,43.4,,58,58.1,10.7,7.5,14,0.0,0.12216
2024-04-17,08:40,58.7,43.8,,58.7,57.6,10.2,7.4,18,0.0,0.1275
2024-04-17,08:45,59,43.8,,59,56.9,10.2,7.2,359,0.0,0.13236
2024-04-17,08:50,59.5,44,,59.5,56.6,10.8,7.5,6,0.0,0.13728
2024-04-17,08:55,59.9,44.2,,59.9,56.1,10.8,7.7,11,0.0,0.14208
2024-04-17,09:00,60.5,44.4,,60.5,55.4,10.9,6.9,10,0.0,0.1467
2024-04-17,09:05,61,44.4,,61,54.3,10.6,6.4,347,0.0,0.15156
2024-04-17,09:10,62.1,44.9,,62.1,53.3,8.7,5.8,332,0.0,0.15612
2024-04-17,09:15,62.5,45.3,,62.5,53.3,9.9,6.6,321,0.0,0.16098
2024-04-17,09:20,61.5,45.2,,61.5,55.0,11.1,7.1,332,0.0,0.16566
2024-04-17,09:25,62.4,45.4,,62.4,53.8,11.1,7.2,307,0.0,0.16986
2024-04-17,09:30,62.8,45.6,,62.8,53.4,11.1,6.5,330,0.0,0.17442
2024-04-17,09:35,63.2,45.4,,63.2,52.2,10.2,6.3,338,0.0,0.17898
2024-04-17,09:40,63.3,45.6,,63.3,52.5,10,5.5,316,0.0,0.18282
2024-04-17,09:45,64.5,45.6,,64.5,50.3,8.5,5.3,342,0.0,0.18732
2024-04-17,09:50,64.7,45.8,,64.7,50.5,9.4,4.5,338,0.0,0.1911
2024-04-17,09:55,65.3,46.4,,65.3,50.4,6.9,3.4,338,0.0,0.195
2024-04-17,10:00,65.9,46.5,,65.9,49.5,7.2,4,318,0.0,0.1989
2024-04-17,10:05,66,46.6,,66,49.6,5.6,2.9,3,0.0,0.20238
2024-04-17,10:10,66,46.9,,66,50.1,7.2,3.2,349,0.0,0.20658
2024-04-17,10:15,66.7,46.8,,66.7,48.9,6.2,2.3,332,0.0,0.21018
2024-04-17,10:20,66.7,46.9,,66.7,49.0,7.1,2.9,312,0.0,0.21354
2024-04-17,10:25,67.7,46.8,,67.7,47.2,6.4,3.1,14,0.0,0.21732
2024-04-17,10:30,68,47.3,,68,47.5,9.2,4.6,343,0.0,0.22056
2024-04-17,10:35,68.1,47,,68.1,46.9,8.2,4.1,30,0.0,0.22446
2024-04-17,10:40,68,47.1,,68,47.1,7.6,4.3,49,0.0,0.22818
2024-04-17,10:45,69,46.8,,69,44.9,5,3.4,48,0.0,0.23118
2024-04-17,10:50,69.4,46.2,,69.4,43.4,5.9,2.2,309,0.0,0.23406
2024-04-17,10:55,69.3,46,,69.3,43.4,7.3,4.2,3,0.0,0.23754
2024-04-17,11:00,70,46.4,,70,42.9,6.6,3.1,276,0.0,0.24084
2024-04-17,11:05,70.2,46.3,,70.2,42.4,6.5,2.8,222,0.0,0.24408
2024-04-17,11:10,70.4,46.8,,70.4,42.8,7.8,4.2,302,0.0,0.24828
2024-04-17,11:15,71.1,47,,71.1,42.2,9.2,5.3,40,0.0,0.25296
2024-04-17,11:20,72.1,46.2,,72.1,39.6,10.4,5.3,348,0.0,0.2502
2024-04-17,11:25,71.5,44.3,,71.5,37.7,8.2,4.7,359,0.0,0.24762
2024-04-17,11:30,73,44.8,,73,36.5,4.2,2.4,356,0.0,0.25476
2024-04-17,11:35,72.5,45.6,,72.5,38.2,7,3.8,331,0.0,0.25602
2024-04-17,11:40,72.5,45,,72.5,37.4,8.1,5.5,317,0.0,0.25866
2024-04-17,11:45,73,44.7,,73,36.2,8.3,4.1,307,0.0,0.26028
2024-04-17,11:50,73.3,44.9,,73.3,36.2,5.9,3.4,0,0.0,0.2553
2024-04-17,11:55,73.5,45.6,,73.5,37.0,10.6,5.7,135,0.0,0.26028
2024-04-17,12:00,73.1,44.9,,73.1,36.4,13.1,7.3,202,0.0,0.25068
2024-04-17,12:05,73.4,44.2,,73.4,35.2,7.2,4.4,210,0.0,0.24858
2024-04-17,12:10,72.8,43.5,,72.8,35.0,9.1,5.7,193,0.0,0.2454
2024-04-17,12:15,74,43.3,,74,33.3,10,4.7,182,0.0,0.25194
2024-04-17,12:20,73.8,42.7,,73.8,32.8,12.8,6.1,171,0.0,0.27072
2024-04-17,12:25,74.7,42.9,,74.7,32.0,12.6,8.2,213,0.0,0.2796
2024-04-17,12:30,75,42.7,,75,31.5,13.7,8,204,0.0,0.25992
2024-04-17,12:35,74.6,41.9,,74.6,30.8,11.9,7.3,184,0.0,0.25416
2024-04-17,12:40,74.3,41.2,,74.3,30.5,14.1,8.1,201,0.0,0.22818
2024-04-17,12:45,74.3,41.2,,74.3,30.3,16,8.5,187,0.0,0.22074
2024-04-17,12:50,74.4,41.2,,74.4,30.3,10,5.6,153,0.0,0.27576
2024-04-17,12:55,75.2,41.2,,75.2,29.6,11.4,7.4,183,0.0,0.27288
2024-04-17,13:00,76.6,42,,76.6,29.0,11.9,6.5,222,0.0,0.27048
2024-04-17,13:05,75.9,41.5,,75.9,29.1,11.4,5.3,238,0.0,0.26922
2024-04-17,13:10,76.2,40.1,,76.2,27.3,9.1,5.1,196,0.0,0.26934
2024-04-17,13:15,76.5,38.7,,76.5,25.6,18.5,11.9,208,0.0,0.26934
2024-04-17,13:20,76.5,38.3,,76.5,25.2,13.7,10,200,0.0,0.26856
2024-04-17,13:25,76.1,37.3,,76.1,24.6,11.9,7.3,184,0.0,0.26694
2024-04-17,13:30,76.4,37.4,,76.4,24.4,13.2,6.9,197,0.0,0.26646
2024-04-17,13:35,76.5,37.7,,76.5,24.7,12.3,8.5,206,0.0,0.26454
2024-04-17,13:40,77.4,38.4,,77.4,24.6,13.5,8.7,206,0.0,0.26328
2024-04-17,13:45,77.3,37.7,,77.3,24,13.8,8.7,249,0.0,0.26208
2024-04-17,13:50,78.4,37.7,,78.4,23.2,18.9,11.5,240,0.0,0.26094
2024-04-17,13:55,77.7,37,,77.7,23.1,16.5,9.6,249,0.0,0.25902
2024-04-17,14:00,78.1,37.6,,78.1,23.3,21,12.6,191,0.0,0.25698
2024-04-17,14:05,78.3,37.5,,78.3,23.0,18.8,14.6,196,0.0,0.25518
2024-04-17,14:10,77.5,37,,77.5,23.2,16.9,11.3,182,0.0,0.2535
2024-04-17,14:15,78.6,37.1,,78.6,22.5,19.8,13.6,193,0.0,0.25146
2024-04-17,14:20,77.8,36.9,,77.8,22.9,17.9,8.6,195,0.0,0.24858
2024-04-17,14:25,79,36.8,,79,21.9,17.5,10.3,213,0.0,0.24708
2024-04-17,14:30,78.8,35.5,,78.8,21.0,21.7,11.9,231,0.0,0.24504
2024-04-17,14:35,78.9,35.7,,78.9,21,18.3,10.8,236,0.0,0.24234
2024-04-17,14:40,78.5,36.1,,78.5,21.7,17.8,12.9,240,0.0,0.23958
2024-04-17,14:45,79.6,36.8,,79.6,21.5,20.1,10,236,0.0,0.23652
2024-04-17,14:50,78.6,36.4,,78.6,21.9,13.6,8.2,205,0.0,0.234
2024-04-17,14:55,79.7,35.9,,79.7,20.7,23.2,11.3,209,0.0,0.23118
2024-04-17,15:00,78.8,36,,78.8,21.4,22.3,15,193,0.0,0.2274
2024-04-17,15:05,78.7,35.3,,78.7,20.9,16.8,9.5,210,0.0,0.22398
2024-04-17,15:10,78.9,36,,78.9,21.3,18,12.5,181,0.0,0.22104
2024-04-17,15:15,79.4,35.4,,79.4,20.4,20.1,8.4,212,0.0,0.2175
2024-04-17,15:20,80.3,36.1,,80.3,20.4,20.9,13.9,207,0.0,0.21354
2024-04-17,15:25,79.4,35.9,,79.4,20.9,23.7,15,196,0.0,0.21006
2024-04-17,15:30,79.7,35.9,,79.7,20.7,21,14.4,199,0.0,0.20664
2024-04-17,15:35,79.4,35.5,,79.4,20.5,17.2,11.3,201,0.0,0.20298
2024-04-17,15:40,79.2,35.3,,79.2,20.5,19.7,12.6,201,0.0,0.19884
2024-04-17,15:45,79.6,36.3,,79.6,21.0,23.6,15.9,192,0.0,0.19746
2024-04-17,15:50,79,36,,79,21.2,24,15.3,194,0.0,0.1905
2024-04-17,15:55,79.2,35.6,,79.2,20.7,22,14.1,188,0.0,0.18636
2024-04-17,16:00,79.6,35.3,,79.6,20.2,23.6,17,204,0.0,0.18228
2024-04-17,16:05,79.8,35.1,,79.8,20.0,20.5,14.2,220,0.0,0.1779
2024-04-17,16:10,79.7,36.5,,79.7,21.1,21.4,15.6,199,0.0,0.17328
2024-04-17,16:15,79.6,36.6,,79.6,21.3,22.7,17,181,0.0,0.16908
2024-04-17,16:20,79,36.1,,79,21.4,23.7,16,187,0.0,0.165
2024-04-17,16:25,79.6,36.5,,79.6,21.3,18.5,13.2,180,0.0,0.15996
2024-04-17,16:30,79.2,35.7,,79.2,20.9,20.8,13.5,219,0.0,0.15534
2024-04-17,16:35,79.2,35.9,,79.2,21.0,21.2,15.3,201,0.0,0.15036
2024-04-17,16:40,79,35.9,,79,21.2,20.2,12.8,189,0.0,0.14568
2024-04-17,16:45,79.8,36.4,,79.8,21.0,22.3,14.7,205,0.0,0.14112
2024-04-17,16:50,79.3,36.6,,79.3,21.6,24,17.5,203,0.0,0.13608
2024-04-17,16:55,79.1,36.7,,79.1,21.8,25,15.6,209,0.0,0.1311
2024-04-17,17:00,79,36.8,,79,22.0,27.6,17.8,203,0.0,0.12618
2024-04-17,17:05,78.8,36.6,,78.8,21.9,23.1,16.6,196,0.0,0.12126
2024-04-17,17:10,78.5,36.4,,78.5,22.0,22.4,13,193,0.0,0.1164
2024-04-17,17:15,78.8,36.5,,78.8,21.8,20.4,15,189,0.0,0.11154
2024-04-17,17:20,78.8,36.1,,78.8,21.5,21.7,14.7,196,0.0,0.1065
2024-04-17,17:25,78.4,36,,78.4,21.6,21.7,15.7,190,0.0,0.10158
2024-04-17,17:30,78.5,35.6,,78.5,21.2,17.8,13.4,183,0.0,0.09648
2024-04-17,17:35,78.8,35.7,,78.8,21.2,16.7,10.8,190,0.0,0.0915
2024-04-17,17:40,78.4,35.5,,78.4,21.2,21.6,16.3,188,0.0,0.08652
2024-04-17,17:45,78.3,35.3,,78.3,21.1,15.2,11.9,193,0.0,0.08148
2024-04-17,17:50,78.4,35.3,,78.4,21.0,19.1,13.4,191,0.0,0.07668
2024-04-17,17:55,78.3,34.8,,78.3,20.7,21.9,14.9,185,0.0,0.072
2024-04-17,18:00,78.4,34.8,,78.4,20.7,16.9,12.5,184,0.0,0.06726
2024-04-17,18:05,78.4,34.6,,78.4,20.5,15,10.7,182,0.0,0.0624
2024-04-17,18:10,78,34.5,,78,20.6,19.4,14.5,191,0.0,0.05778
2024-04-17,18:15,78,34,,78,20.3,18.6,13.6,193,0.0,0.05328
2024-04-17,18:20,77.9,34,,77.9,20.3,15.6,10.5,188,0.0,0.04878
2024-04-17,18:25,77.8,34.2,,77.8,20.5,16.7,12.3,188,0.0,0.0444
2024-04-17,18:30,77.5,34.1,,77.5,20.7,17.6,12.6,173,0.0,0.04026
2024-04-17,18:35,77.1,33.8,,77.1,20.7,17,11.4,167,0.0,0.03612
2024-04-17,18:40,76.7,34,,76.7,21.1,13.7,10,165,0.0,0.03234
2024-04-17,18:45,76.4,34,,76.4,21.4,14,10.2,165,0.0,0.02868
2024-04-17,18:50,75.9,33.8,,75.9,21.5,12.2,9.6,165,0.0,0.0252
2024-04-17,18:55,75,34.3,,75,22.7,12.9,9.5,163,0.0,0.02172
2024-04-17,19:00,74.3,34.4,,74.3,23.3,13.2,9.8,165,0.0,0.01848
2024-04-17,19:05,73.4,34.3,,73.4,24.0,13.3,9.4,164,0.0,0.0153
2024-04-17,19:10,72.6,33.9,,72.6,24.1,11.2,9.4,166,0.0,0.0123
2024-04-17,19:15,71.5,33.7,,71.5,24.9,13.2,9.1,169,0.0,0.0096
2024-04-17,19:20,70.2,33.5,,70.2,25.8,10.4,8.4,181,0.0,0.0066
2024-04-17,19:25,68.8,33.2,,68.8,26.7,10.1,8.6,187,0.0,0.00366
2024-04-17,19:30,68.8,32.2,,68.8,25.7,11,9.1,189,0.0,0.00144
2024-04-17,19:35,68.6,31.4,,68.6,25.0,11.4,8.9,198,0.0,0.00072
2024-04-17,19:40,67.4,31.3,,67.4,26,10.2,8.3,207,0.0,0.00024
2024-04-17,19:45,66.6,31.1,,66.6,26.5,10.5,8.5,220,0.0,0
2024-04-17,19:50,66.7,30.8,,66.7,26.0,15,10.7,221,0.0,0
2024-04-17,19:55,67.7,30.5,,67.7,24.9,15.5,10.3,235,0.0,0
2024-04-17,20:00,67.1,30.7,,67.1,25.6,12.5,9.3,230,0.0,0
2024-04-17,20:05,66.7,30.6,,66.7,25.8,9.8,8.1,233,0.0,0
2024-04-17,20:10,66.8,30.3,,66.8,25.5,10.3,8.4,224,0.0,0
2024-04-17,20:15,67.2,30.3,,67.2,25.1,11.7,9.1,223,0.0,0
2024-04-17,20:20,65.4,30.3,,65.4,26.7,9.4,7.4,227,0.0,0
2024-04-17,20:25,65.2,30.1,,65.2,26.7,12.3,8.9,215,0.0,0
2024-04-17,20:30,65.6,29.8,,65.6,26.1,13.2,9.1,220,0.0,0
2024-04-17,20:35,67,29.8,,67,24.8,11.7,9.6,234,0.0,0
2024-04-17,20:40,67,30.2,,67,25.2,13.8,10.5,241,0.0,0
2024-04-17,20:45,66.7,30.3,,66.7,25.6,12.3,10.3,239,0.0,0
2024-04-17,20:50,66.6,30.4,,66.6,25.8,13.1,10.3,240,0.0,0
2024-04-17,20:55,66.7,30.5,,66.7,25.8,12.2,9.7,243,0.0,0
2024-04-17,21:00,66.4,30.7,,66.4,26.2,15.9,9.6,249,0.0,0
2024-04-17,21:05,66.1,30.5,,66.1,26.3,13,9.3,255,0.0,0
2024-04-17,21:10,64.5,30.6,,64.5,27.9,10.4,8.3,255,0.0,0
2024-04-17,21:15,63.9,30.5,,63.9,28.4,13.5,9.3,256,0.0,0
2024-04-17,21:20,64.3,30.4,,64.3,28.0,15.1,10.6,255,0.0,0
2024-04-17,21:25,63.8,30.3,,63.8,28.3,15,11.3,258,0.0,0
2024-04-17,21:30,63.8,30.3,,63.8,28.3,17.1,12.1,261,0.0,0
2024-04-17,21:35,63.3,30.3,,63.3,28.8,16,11.7,265,0.0,0
2024-04-17,21:40,63.4,30.2,,63.4,28.5,16.3,11.9,261,0.0,0
2024-04-17,21:45,64.2,29.8,,64.2,27.3,17.6,13.9,256,0.0,0
2024-04-17,21:50,64.7,29.8,,64.7,26.9,17.7,13.8,255,0.0,0
2024-04-17,21:55,64.5,29.9,,64.5,27.2,19,14.2,259,0.0,0
2024-04-17,22:00,64,30.1,,64,27.9,20.8,15.8,263,0.0,0
2024-04-17,22:05,62.8,30.3,,62.8,29.2,19.9,15.7,268,0.0,0
2024-04-17,22:10,62.7,30,,62.7,29.0,20.1,15.4,275,0.0,0
2024-04-17,22:15,62.7,29.9,,62.7,29.0,19.2,13.6,274,0.0,0
2024-04-17,22:20,62.7,29.6,,62.7,28.6,17.1,13.6,274,0.0,0
2024-04-17,22:25,61.6,29.8,,61.6,29.9,18.5,13,279,0.0,0
2024-04-17,22:30,61.7,29.5,,61.7,29.5,16.8,12.8,275,0.0,0
2024-04-17,22:35,61.5,29.4,,61.5,29.5,14.2,11.1,271,0.0,0
2024-04-17,22:40,61.4,29.4,,61.4,29.6,15.7,12.3,261,0.0,0
2024-04-17,22:45,61.5,29.4,,61.5,29.6,15.9,12.2,264,0.0,0
2024-04-17,22:50,61.1,29.1,,61.1,29.6,14.9,10.7,266,0.0,0
2024-04-17,22:55,61.4,29.2,,61.4,29.4,15.9,12.4,270,0.0,0
2024-04-17,23:00,62,29,,62,28.6,22.3,14.2,272,0.0,0
2024-04-17,23:05,61.6,29.2,,61.6,29.3,15.2,12.1,268,0.0,0
2024-04-17,23:10,61.6,29.3,,61.6,29.4,17,11.9,264,0.0,0
2024-04-17,23:15,61.2,29.1,,61.2,29.5,15.7,12.6,263,0.0,0
2024-04-17,23:20,59.9,29.4,,59.9,31.3,16.7,13,256,0.0,0
2024-04-17,23:25,58.8,29.1,,58.8,32.1,17.9,13,259,0.0,0
2024-04-17,23:30,58.7,29,,58.7,32.2,18.5,13.8,257,0.0,0
2024-04-17,23:35,60.1,28.7,,60.1,30.3,19.4,14,262,0.0,0
2024-04-17,23:40,61.4,28.9,,61.4,29.1,19.2,13.1,266,0.0,0
2024-04-17,23:45,62.6,28.9,,62.6,27.9,17,12.9,267,0.0,0
2024-04-17,23:50,62.1,29.2,,62.1,28.7,15.8,12.4,265,0.0,0
2024-04-17,23:55,62,29.3,,62,28.9,16.8,12.2,261,0.0,0
2024-04-18,00:00,61.4,29.4,,61.4,29.6,15.1,11.2,261,0.0,0
2024-04-18,00:05,61.9,29.3,,61.9,29.0,16.3,12.2,262,0.0,0
2024-04-18,00:10,62.2,29.4,,62.2,28.8,15.6,12.1,269,0.0,0
2024-04-18,00:15,61.4,29.4,,61.4,29.7,18.9,12.8,271,0.0,0
2024-04-18,00:20,61.4,29.4,,61.4,29.6,20.4,15.3,274,0.0,0
2024-04-18,00:25,61.2,29.4,,61.2,29.8,18.5,14,274,0.0,0
2024-04-18,00:30,61.1,29.3,,61.1,29.8,19.2,15.2,272,0.0,0
2024-04-18,00:35,60.6,29.4,,60.6,30.5,16.7,13.3,266,0.0,0
2024-04-18,00:40,59.5,29.4,,59.5,31.7,14.7,11.1,260,0.0,0
2024-04-18,00:45,59,29.1,,59,32.0,16.3,11.8,259,0.0,0
2024-04-18,00:50,60.3,28.9,,60.3,30.3,16.3,12.8,266,0.0,0
2024-04-18,00:55,59.6,29.1,,59.6,31.3,17.3,13.1,258,0.0,0
2024-04-18,01:00,59.9,29,,59.9,30.8,17.2,12.5,264,0.0,0
2024-04-18,01:05,59.5,29,,59.5,31.2,15,11,261,0.0,0
2024-04-18,01:10,58.6,29.4,,58.6,32.8,16,11.2,259,0.0,0
2024-04-18,01:15,58.8,28.9,,58.8,31.9,15.7,11.8,259,0.0,0
2024-04-18,01:20,59,28.9,,59,31.7,14.1,11.4,260,0.0,0
2024-04-18,01:25,59.6,29.1,,59.6,31.2,15.7,12.2,258,0.0,0
2024-04-18,01:30,60,29.4,,60,31.1,14.4,11.9,259,0.0,0
2024-04-18,01:35,58.9,29.4,,58.9,32.4,13.2,10.9,274,0.0,0
2024-04-18,01:40,58.9,29.6,,58.9,32.7,19.6,11.5,295,0.0,0
2024-04-18,01:45,59.7,29.5,,59.7,31.6,18.7,11.5,307,0.0,0
2024-04-18,01:50,61,29.4,,61,30.1,20.6,16.3,315,0.0,0
2024-04-18,01:55,60.4,29.7,,60.4,31.2,23.6,16.6,322,0.0,0
2024-04-18,02:00,58.9,30.3,,58.9,33.7,25.2,19.1,340,0.0,0
2024-04-18,02:05,57.9,31.6,,57.9,36.7,30.8,22.2,340,0.0,0
2024-04-18,02:10,56.8,33.4,,56.8,41.0,25.9,19.4,334,0.0,0
2024-04-18,02:15,55.3,34.9,,55.3,46.2,25,19.9,350,0.0,0
2024-04-18,02:20,54,38.4,,54,55.6,32.3,22.3,346,0.0,0
2024-04-18,02:25,52.8,39,,52.8,59.2,25.2,17.4,354,0.0,0
2024-04-18,02:30,51.8,39.6,,51.8,63.0,28.1,21,356,0.0,0
2024-04-18,02:35,51.1,39.7,,51.1,64.9,24.9,18.3,353,0.0,0
2024-04-18,02:40,50.6,39.5,,50.6,65.6,28.7,20.3,347,0.0,0
2024-04-18,02:45,50.3,39.5,,50.3,66.5,27.9,20.9,350,0.0,0
2024-04-18,02:50,49.5,39.4,,49.5,68.1,29.8,19.8,354,0.0,0
2024-04-18,02:55,48.8,39.3,,48.8,69.4,34.8,23.7,344,0.0,0
2024-04-18,03:00,48.2,39.1,,48.2,70.7,34.8,24.3,348,0.0,0
2024-04-18,03:05,47.3,39.1,,47.3,72.9,26.4,20.8,355,0.0,0
2024-04-18,03:10,46.6,38.8,,46.6,74.2,30.6,22.6,357,0.0,0
2024-04-18,03:15,46.3,38.7,,46.3,74.6,26,20.7,356,0.0,0
2024-04-18,03:20,46,38.7,,46,75.6,25.6,18.5,2,0.0,0
2024-04-18,03:25,45.8,38.6,,45.8,75.9,23.3,18.7,2,0.0,0
2024-04-18,03:30,45.5,38.6,,45.5,76.5,24.6,19,353,0.0,0
2024-04-18,03:35,45.4,38.5,,45.4,76.6,27.1,20.9,340,0.0,0
2024-04-18,03:40,45.4,38.6,,45.4,76.9,28.8,22.7,347,0.0,0
2024-04-18,03:45,45.3,38.6,,45.3,77.2,30.2,22.5,353,0.0,0
2024-04-18,03:50,45.5,38.7,,45.5,77.0,33.9,25.8,344,0.0,0
2024-04-18,03:55,45.5,39,,45.5,77.8,33.2,24.2,340,0.0,0
2024-04-18,04:00,45.5,38.9,,45.5,77.6,32.9,23.2,337,0.0,0
2024-04-18,04:05,45.7,39,,45.7,77.3,31.5,24.8,341,0.0,0
2024-04-18,04:10,45.6,39.3,,45.6,78.6,30.9,23,357,0.0,0
2024-04-18,04:15,45.1,39.2,,45.1,79.7,36.7,25.5,359,0.0,0
2024-04-18,04:20,44.8,39.1,,44.8,80.3,35,25.7,357,0.0,0
2024-04-18,04:25,44.9,39.1,,44.9,79.9,32.3,21,350,0.0,0
2024-04-18,04:30,44.8,39,,44.8,80.0,31.9,23.2,354,0.0,0
2024-04-18,04:35,44,38.8,,44,81.9,36.6,24.5,5,0.0,0
2024-04-18,04:40,43.3,38.3,,43.3,82.4,36.9,24.1,6,0.0,0
2024-04-18,04:45,42.8,38,,42.8,82.9,34.7,28.3,1,0.0,0
2024-04-18,04:50,42.6,37.7,,42.6,82.5,40.9,29.1,3,0.0,0
2024-04-18,04:55,42.6,37.5,,42.6,82.0,33.3,27.4,2,0.0,0
2024-04-18,05:00,42.6,37.5,,42.6,81.9,33.7,26.9,3,0.0,0
2024-04-18,05:05,42.8,37.5,,42.8,81.4,35.2,24.9,1,0.0,0
2024-04-18,05:10,42.8,37.5,,42.8,81.2,34.6,25,4,0.0,0
2024-04-18,05:15,42.8,37.5,,42.8,81.2,38.3,26.4,4,0.0,0
2024-04-18,05:20,42.6,37.5,,42.6,81.9,39,31.1,3,0.0,0
2024-04-18,05:25,42.5,37.1,,42.5,81.1,38.3,29.2,359,0.0,0
2024-04-18,05:30,42.1,37.1,,42.1,82.3,40.2,30.2,4,0.0,0
2024-04-18,05:35,41.8,36.9,,41.8,82.5,41.4,29,4,0.0,0
2024-04-18,05:40,41.6,36.8,,41.6,82.8,35.5,27.9,6,0.0,0
2024-04-18,05:45,41.5,36.5,,41.5,82.3,37.5,29.9,3,0.0,0
2024-04-18,05:50,41.4,36.4,,41.4,82.3,42.3,32.6,3,0.0,0
2024-04-18,05:55,41.4,36.2,,41.4,81.9,38.4,31.4,3,0.0,0
2024-04-18,06:00,41.3,36.3,,41.3,82.2,39.1,30.5,1,0.0,0
2024-04-18,06:05,41.3,36.3,,41.3,82.4,38.8,30.1,2,0.0,0
2024-04-18,06:10,41.2,36.4,,41.2,82.8,38.3,28.9,0,0.0,0
2024-04-18,06:15,41,36.2,,41,82.9,41.4,29.5,2,0.0,0.0003
2024-04-18,06:20,41,36.2,,41,82.8,36,27,4,0.0,0.00054
2024-04-18,06:25,41,36.4,,41,83.6,33.8,26.3,359,0.0,0.00108
2024-04-18,06:30,40.9,36.3,,40.9,83.5,30.9,24,356,0.0,0.00234
2024-04-18,06:35,40.7,36,,40.7,83.1,31.2,25.9,356,0.0,0.00306
2024-04-18,06:40,40.6,35.8,,40.6,82.8,36.1,25.3,0,0.0,0.003
2024-04-18,06:45,40.7,35.7,,40.7,82.2,33.1,24.5,3,0.0,0.0033
2024-04-18,06:50,40.6,35.7,,40.6,82.8,38.4,26.1,357,0.0,0.0048
2024-04-18,06:55,40.5,35.7,,40.5,83.1,33.8,24.7,7,0.0,0.00618
2024-04-18,07:00,40.5,35.6,,40.5,82.6,32.7,24.2,4,0.0,0.00768
2024-04-18,07:05,40.6,35.5,,40.6,81.9,30.7,23.7,3,0.0,0.00852
2024-04-18,07:10,40.7,35.7,,40.7,82.3,36.1,24.7,6,0.0,0.0096
2024-04-18,07:15,40.5,35.5,,40.5,82.2,31.3,24.2,4,0.0,0.01104
2024-04-18,07:20,40.4,35.6,,40.4,83.0,37.6,27.5,3,0.0,0.01188
2024-04-18,07:25,40.5,35.5,,40.5,82.4,31.7,24.8,4,0.0,0.01272
2024-04-18,07:30,40.6,35.7,,40.6,82.8,33.2,25.5,9,0.0,0.01674
2024-04-18,07:35,40.7,35.7,,40.7,82.4,32.5,24,3,0.0,0.0201
2024-04-18,07:40,40.9,35.8,,40.9,82.0,31.3,22.1,8,0.0,0.0189
2024-04-18,07:45,40.8,35.9,,40.8,82.5,32.7,21.2,3,0.0,0.01896
2024-04-18,07:50,40.9,36.1,,40.9,82.8,30.6,20.3,4,0.0,0.02406
2024-04-18,07:55,40.9,36.1,,40.9,82.9,33.1,21.6,358,0.0,0.02796